Météo par heure à Jurbarkas

Ce jour, 20 Juin, Dimanche

Heure Température Précipitation Vent Pression Humidité
00:00 +21°C° 0 mm 3 m/s 759 mmHg 85%
01:00 +20°C° 0 mm 3 m/s 759 mmHg 87%
02:00 +20°C° 0 mm 2 m/s 760 mmHg 89%
03:00 +20°C° 0 mm 2 m/s 759 mmHg 89%
04:00 +19°C° 0 mm 2 m/s 759 mmHg 89%
05:00 +19°C° 0 mm 2 m/s 759 mmHg 89%
06:00 +21°C° 0 mm 3 m/s 759 mmHg 83%
07:00 +24°C° 0 mm 3 m/s 759 mmHg 78%
08:00 +25°C° 0 mm 4 m/s 759 mmHg 72%
09:00 +27°C° 0 mm 4 m/s 759 mmHg 68%
10:00 +28°C° 0 mm 4 m/s 759 mmHg 63%
11:00 +29°C° 0 mm 4 m/s 759 mmHg 59%
12:00 +30°C° 0.1 mm 4 m/s 759 mmHg 58%
13:00 +30°C° 0.1 mm 4 m/s 759 mmHg 57%
14:00 +30°C° 0.1 mm 4 m/s 758 mmHg 56%
15:00 +30°C° 0.2 mm 4 m/s 758 mmHg 58%
16:00 +30°C° 0.2 mm 3 m/s 758 mmHg 60%
17:00 +30°C° 0.2 mm 3 m/s 757 mmHg 63%
18:00 +29°C° 0.3 mm 3 m/s 757 mmHg 69%
19:00 +27°C° 0.3 mm 3 m/s 757 mmHg 75%
20:00 +26°C° 0.3 mm 3 m/s 757 mmHg 81%
21:00 +25°C° 0.1 mm 3 m/s 757 mmHg 84%
22:00 +24°C° 0.1 mm 3 m/s 757 mmHg 87%
23:00 +21°C° 0.1 mm 3 m/s 757 mmHg 90%

Demain, 21 Juin, Lundi

Heure Température Précipitation Vent Pression Humidité
00:00 +21°C° 0 mm 3 m/s 757 mmHg 91%
01:00 +21°C° 0 mm 3 m/s 757 mmHg 92%
02:00 +20°C° 0 mm 2 m/s 757 mmHg 93%
03:00 +20°C° 0 mm 2 m/s 757 mmHg 94%
04:00 +20°C° 0 mm 2 m/s 757 mmHg 94%
05:00 +20°C° 0 mm 2 m/s 757 mmHg 94%
06:00 +22°C° 0 mm 3 m/s 757 mmHg 89%
07:00 +24°C° 0 mm 3 m/s 757 mmHg 83%
08:00 +25°C° 0 mm 4 m/s 757 mmHg 77%
09:00 +27°C° 0 mm 4 m/s 757 mmHg 71%
10:00 +28°C° 0 mm 4 m/s 757 mmHg 65%
11:00 +29°C° 0 mm 5 m/s 757 mmHg 59%
12:00 +30°C° 0 mm 5 m/s 756 mmHg 56%
13:00 +30°C° 0 mm 5 m/s 756 mmHg 53%
14:00 +32°C° 0 mm 5 m/s 756 mmHg 50%
15:00 +32°C° 0 mm 5 m/s 755 mmHg 52%
16:00 +30°C° 0 mm 4 m/s 755 mmHg 55%
17:00 +30°C° 0 mm 4 m/s 755 mmHg 57%
18:00 +29°C° 0.1 mm 4 m/s 755 mmHg 64%
19:00 +27°C° 0.1 mm 4 m/s 755 mmHg 70%
20:00 +26°C° 0.1 mm 4 m/s 755 mmHg 76%
21:00 +24°C° 0 mm 3 m/s 755 mmHg 81%
22:00 +22°C° 0 mm 3 m/s 755 mmHg 85%
23:00 +21°C° 0 mm 3 m/s 755 mmHg 89%

Après-demain, 22 Juin, Mardi

Heure Température Précipitation Vent Pression Humidité
00:00 +21°C° 0 mm 3 m/s 755 mmHg 90%
01:00 +20°C° 0 mm 3 m/s 755 mmHg 91%
02:00 +20°C° 0 mm 2 m/s 754 mmHg 92%
03:00 +20°C° 0 mm 2 m/s 754 mmHg 92%
04:00 +20°C° 0 mm 2 m/s 754 mmHg 92%
05:00 +20°C° 0 mm 2 m/s 754 mmHg 92%
06:00 +21°C° 0 mm 3 m/s 755 mmHg 86%
07:00 +24°C° 0 mm 3 m/s 755 mmHg 81%
08:00 +26°C° 0 mm 4 m/s 755 mmHg 75%
09:00 +27°C° 0.2 mm 4 m/s 755 mmHg 72%
10:00 +28°C° 0.2 mm 4 m/s 755 mmHg 70%
11:00 +29°C° 0.2 mm 4 m/s 755 mmHg 67%
12:00 +29°C° 0.6 mm 4 m/s 755 mmHg 67%
13:00 +29°C° 0.6 mm 4 m/s 755 mmHg 67%
14:00 +29°C° 0.6 mm 3 m/s 755 mmHg 68%
15:00 +28°C° 0.4 mm 3 m/s 755 mmHg 72%
16:00 +27°C° 0.4 mm 3 m/s 756 mmHg 76%
17:00 +26°C° 0.4 mm 3 m/s 756 mmHg 80%
18:00 +25°C° 0.7 mm 2 m/s 756 mmHg 84%
19:00 +24°C° 0.7 mm 2 m/s 756 mmHg 88%
20:00 +22°C° 0.7 mm 1 m/s 757 mmHg 92%
21:00 +20°C° 0.5 mm 2 m/s 757 mmHg 93%
22:00 +20°C° 0.5 mm 2 m/s 757 mmHg 94%
23:00 +19°C° 0.5 mm 2 m/s 757 mmHg 96%

23 Juin, Mercredi

Heure Température Précipitation Vent Pression Humidité
00:00 +18°C° 0 mm 2 m/s 757 mmHg 96%
01:00 +18°C° 0 mm 2 m/s 757 mmHg 96%
02:00 +17°C° 0 mm 2 m/s 758 mmHg 95%
03:00 +18°C° 0 mm 1 m/s 758 mmHg 95%
04:00 +18°C° 0 mm 1 m/s 758 mmHg 94%
05:00 +18°C° 0 mm 1 m/s 758 mmHg 94%
06:00 +20°C° 0.1 mm 1 m/s 758 mmHg 90%
07:00 +21°C° 0.1 mm 1 m/s 758 mmHg 86%
08:00 +21°C° 0.1 mm 0 m/s 758 mmHg 82%
09:00 +23°C° 0 mm 0 m/s 758 mmHg 76%
10:00 +24°C° 0 mm 0 m/s 758 mmHg 71%
11:00 +26°C° 0 mm 0 m/s 758 mmHg 66%
12:00 +27°C° 0.1 mm 0 m/s 758 mmHg 64%
13:00 +30°C° 0.1 mm 1 m/s 758 mmHg 62%
14:00 +31°C° 0.1 mm 1 m/s 758 mmHg 60%
15:00 +30°C° 0.4 mm 1 m/s 758 mmHg 63%
16:00 +30°C° 0.4 mm 1 m/s 758 mmHg 65%
17:00 +30°C° 0.4 mm 1 m/s 758 mmHg 67%
18:00 +29°C° 0.2 mm 1 m/s 758 mmHg 72%
19:00 +28°C° 0.2 mm 1 m/s 758 mmHg 76%
20:00 +27°C° 0.2 mm 1 m/s 758 mmHg 81%
21:00 +26°C° 0.3 mm 1 m/s 758 mmHg 84%
22:00 +25°C° 0.3 mm 1 m/s 758 mmHg 87%
23:00 +24°C° 0.3 mm 1 m/s 758 mmHg 90%

24 Juin, Jeudi

Heure Température Précipitation Vent Pression Humidité
00:00 +23°C° 0.6 mm 1 m/s 758 mmHg 91%
01:00 +23°C° 0.6 mm 1 m/s 758 mmHg 92%
02:00 +23°C° 0.6 mm 2 m/s 758 mmHg 93%
03:00 +23°C° 0.2 mm 2 m/s 758 mmHg 93%
04:00 +23°C° 0.2 mm 2 m/s 758 mmHg 94%
05:00 +22°C° 0.2 mm 1 m/s 758 mmHg 94%
06:00 +23°C° 0 mm 2 m/s 758 mmHg 90%
07:00 +24°C° 0 mm 2 m/s 758 mmHg 86%
08:00 +25°C° 0 mm 2 m/s 758 mmHg 82%
09:00 +26°C° 0 mm 2 m/s 758 mmHg 78%
10:00 +27°C° 0 mm 3 m/s 758 mmHg 73%
11:00 +29°C° 0 mm 3 m/s 759 mmHg 68%
12:00 +29°C° 0 mm 3 m/s 759 mmHg 67%
13:00 +29°C° 0 mm 4 m/s 759 mmHg 66%
14:00 +29°C° 0 mm 4 m/s 759 mmHg 65%
15:00 +29°C° 0 mm 4 m/s 759 mmHg 65%
16:00 +28°C° 0 mm 4 m/s 759 mmHg 65%
17:00 +28°C° 0 mm 4 m/s 759 mmHg 65%
18:00 +26°C° 0 mm 4 m/s 759 mmHg 70%
19:00 +23°C° 0 mm 4 m/s 759 mmHg 76%
20:00 +21°C° 0 mm 3 m/s 759 mmHg 81%
21:00 +19°C° 0 mm 3 m/s 759 mmHg 85%
22:00 +18°C° 0 mm 2 m/s 759 mmHg 89%
23:00 +16°C° 0 mm 2 m/s 759 mmHg 93%

25 Juin, Vendredi

Heure Température Précipitation Vent Pression Humidité
00:00 +16°C° 0 mm 2 m/s 759 mmHg 94%
01:00 +16°C° 0 mm 2 m/s 759 mmHg 94%
02:00 +15°C° 0 mm 2 m/s 759 mmHg 95%
03:00 +15°C° 0 mm 2 m/s 759 mmHg 94%
04:00 +15°C° 0 mm 2 m/s 758 mmHg 93%
05:00 +16°C° 0 mm 1 m/s 758 mmHg 92%
06:00 +18°C° 0.1 mm 1 m/s 758 mmHg 86%
07:00 +20°C° 0.1 mm 1 m/s 758 mmHg 81%
08:00 +20°C° 0.1 mm 0 m/s 758 mmHg 75%
09:00 +21°C° 0.2 mm 0 m/s 758 mmHg 73%
10:00 +22°C° 0.2 mm 0 m/s 758 mmHg 72%
11:00 +23°C° 0.2 mm 0 m/s 757 mmHg 71%
12:00 +24°C° 0 mm 0 m/s 757 mmHg 68%
13:00 +27°C° 0 mm 1 m/s 757 mmHg 66%
14:00 +28°C° 0 mm 1 m/s 756 mmHg 64%
15:00 +27°C° 0.5 mm 1 m/s 756 mmHg 70%
16:00 +26°C° 0.5 mm 2 m/s 756 mmHg 76%
17:00 +25°C° 0.5 mm 2 m/s 756 mmHg 82%
18:00 +22°C° 0.4 mm 3 m/s 757 mmHg 85%
19:00 +20°C° 0.4 mm 4 m/s 757 mmHg 89%
20:00 +19°C° 0.4 mm 5 m/s 757 mmHg 93%
21:00 +17°C° 0 mm 5 m/s 757 mmHg 93%
22:00 +17°C° 0 mm 4 m/s 758 mmHg 93%
23:00 +15°C° 0 mm 4 m/s 758 mmHg 93%
Voir plus

Nous avons besoin de votre consentement

Meteoprog et ses fournisseurs de services peuvent stocker et accéder à des données personnelles telles que des cookies, des identifiants d'appareils ou d'autres technologies similaires sur votre appareil et traiter ces données pour personnaliser le contenu et les publicités, ainsi que pour fournir des fonctionnalités de médias sociaux et analyser le trafic.

  • Stocker et/ou accéder à des informations sur votre appareil

    Des cookies, des identifiants d'appareils ou d'autres informations peuvent être stockés ou accessibles sur votre appareil aux fins indiquées ci-dessus.

  • Annonces et contenus personnalisés, mesure des annonces et des contenus, connaissance de l'audience et développement de produits

    Les annonces et le contenu peuvent être personnalisés en fonction d'un profil. D'autres données peuvent être ajoutées pour mieux personnaliser les annonces et le contenu. Les performances des publicités et du contenu peuvent être mesurées. Il est possible d'obtenir des informations sur le public qui a vu les publicités et le contenu. Ces données peuvent être utilisées pour développer ou améliorer l'expérience de l'utilisateur, les systèmes et les logiciels.

En cliquant sur "J'accepte", vous autorisez l'utilisation de cookies, des identifiants d'appareils, des balises web ou d'autres technologies similaires. Vos paramètres peuvent être modifiés dans le navigateur de votre appareil.

Dans certains cas, des intérêts légitimes peuvent être invoqués plutôt qu'un consentement. Vous pouvez en savoir plus à ce sujet dans notre Politique de confidentialité et de cookies.